SL-8 R/B

Satellite information

Favourite Embed

Satellite Type and Status

ROCKET BODYIN ORBIT

Key statistics

Satellite SL-8 R/B at a glance.

Uptime

14180

Days in orbit

Revolutions

≈ 14.4

Per day

Orbit

LEO

Low Earth Orbit

Inclination

74.0

Latest

Satellite identification and parameters

Extended collection of information and parameters for SL-8 R/B.

Object identification

Identified? True

Debris? False

Object name: SL-8 R/B

International designator: 1986-070B

Object number (NORAD): 16953

Object ID (CCSDS): 16953

Country: COMMONWEALTH OF INDEPENDENT STATES (CIS)

Current information (Y/N): Y

RCS size: LARGE

Orbital parameters

Period: 100.095 minutes

Inclination: 74.0109 deg

SMA: 7141.145 km

Apoapsis: 770.983 km

Periapsis: 755.038 km

RAAN: 254.35 deg

Eccentricy: 0.0011164

Argument of periapsis: 137.9691 deg

Mean anomaly: 222.2321 deg

Mean motion: 14.38636127 rev/day

Mean motion (dot): 0.00000172 rev/day2

B* drag term: 0.00006464 1/REarth

Two-line elements (TLE)

Creation date: July 6, 2025, 6:05 p.m.

Reference frame: TEME

Reference center: EARTH

Epoch: July 6, 2025, 1:31 p.m. UTC

TLE line 0: 0 SL-8 R/B

TLE line 1: 1 16953U 86070B 25187.56332129 .00000172 00000-0 64640-4 0 9993

TLE line 2: 2 16953 74.0109 254.3500 0011164 137.9691 222.2321 14.38636127 34490

Live tracking on map

Real-time ground track for satellite SL-8 R/B.

In-orbit conjunctions

A list of the most updated potential collisions computed for object SL-8 R/B.

Target Orbit TCA Probability of collision Miss distance Type
COSMOS 1867 COOLANT LEO 2025-01-21 23:31:31 0.0002162507 191.0 (m) DEBRIS
COSMOS 2251 DEB LEO 2024-09-28 02:16:17 0.0002613327 568.0 (m) DEBRIS
CZ-6A DEB SSO 2024-08-28 22:40:05 0.0002544951 401.0 (m) DEBRIS

Associated space launch

Military communications satellite

SL-8 R/B was lifted into orbit during the mission ‘Kosmos-3M | Strela-2M 40’, on board a Kosmos-3M space rocket.

The launch took place on Sept. 10, 1986, 1:45 a.m. from 133/3 (133L).

For more information about the launch, click the button.

Launch to space Kosmos-3M | Strela-2M 40
Kosmos-3M | Strela-2M 40

Agency: N/A

Status: Launch Successful

Launch date: Sept. 10, 1986, 1:45 a.m. UTC

Rocket: Kosmos-3M

Launch pad: 133/3 (133L)

Location: Plesetsk Cosmodrome, Russian Federation

...

Latest news about this satellite

There are no fresh news available about this satellite. Check back as we update our databases every day.


Newsletter sign-up

Weekly statistics, charts and insights to help you stay on top of the space industry.